Regional Weather Roundup
Issued by NWS

Home | Current Version | Previous Version | Graphics & Text | Print | Product List | Glossary On
Versions: 1 2 3 4 5 6 7 8 9 10 11 12 13 14 15 16 17 18 19 20 21 22 23 24 25 26 27
000
ASUS45 KCYS 171510
RWRWY

WYOMING REGIONAL WEATHER ROUNDUP
NATIONAL WEATHER SERVICE CHEYENNE WY
900 AM MDT TUE OCT 17 2017

NOTE:  "FAIR" INDICATES FEW OR NO CLOUDS BELOW 12,000 FEET
WITH NO SIGNIFICANT WEATHER AND/OR OBSTRUCTIONS TO VISIBILITY.

WYZ001-171600-
YELLOWSTONE NATIONAL PARK

CITY           SKY/WX    TMP DP  RH WIND       PRES   REMARKS
LK YELLOWSTONE NOT AVBL
W YELLOWSTONE  NOT AVBL

$$
WYZ002>013-054>058-071-098>099-171600-
NORTHERN WYOMING

CITY           SKY/WX    TMP DP  RH WIND       PRES   REMARKS
JACKSON        FAIR      27  23  85 CALM      30.37
CODY           FAIR      57  18  21 VRB3      30.16R
GREYBULL       FAIR      35  27  72 S3        30.16R
WORLAND        FAIR      35  31  85 W3        30.16R
SHERIDAN       FAIR      51  32  48 CALM      30.05S
BUFFALO        FAIR      56  14  19 SW3       30.11R
GILLETTE         N/A     48  31  51 MISG      30.08F
HULETT         FAIR      50  30  46 CALM      30.09F
NEWCASTLE      FAIR      41  28  60 CALM      30.15R

$$
WYZ014>020-022>026-101>103-171600-
CENTRAL WYOMING

CITY           SKY/WX    TMP DP  RH WIND       PRES   REMARKS
BIG PINEY      FAIR      26  15  63 CALM      30.38R
PINEDALE       FAIR      28  19  69 NW5       30.39S WCI  23
DUBOIS         FAIR      41  14  33 NW16      30.28S
LANDER         NOT AVBL
RIVERTON       FAIR      47  20  34 S8        30.22R
CASPER         FAIR      51  14  22 MISG      30.20R
DOUGLAS        FAIR      36  28  73 SE5       30.17S WCI  32

$$
WYZ021-027>030-104>119-171600-
SOUTHERN WYOMING

CITY           SKY/WX    TMP DP  RH WIND       PRES   REMARKS
EVANSTON       FAIR      42   8  24 S8        30.38S
KEMMERER       FAIR      37  14  38 NW8       30.38S WCI  31
FORT BRIDGER   FAIR      51   5  15 SW8       30.39S
ROCK SPRINGS   FAIR      45   4  18 W6        30.37S
DIXON          FAIR      33  17  51 CALM      30.43R
RAWLINS        FAIR      49   8  19 W17G26    30.33R
SARATOGA       FAIR      43  12  28 S6        30.38R
LARAMIE        FAIR      51  12  21 CALM      30.32R
CHEYENNE       FAIR      59  10  14 SW13      30.26S
TORRINGTON     FAIR      44  26  49 E3        30.16R
PINE BLUFFS    FAIR      46  23  39 S5        30.23S

$$




USA.gov is the U.S. government's official web portal to all federal, state and local government web resources and services.